Regional Weather Roundup
Issued by NWS

Home | Current Version | Previous Version | Graphics & Text | Print | Product List | Glossary On
Versions: 1 2 3 4 5 6 7 8 9 10 11 12 13 14 15 16 17 18 19 20 21 22 23 24 25 26 27 28 29 30 31 32 33 34 35 36 37 38 39 40 41 42
000
ASUS45 KCYS 211410
RWRWY

WYOMING REGIONAL WEATHER ROUNDUP
NATIONAL WEATHER SERVICE CHEYENNE WY
800 AM MDT TUE OCT 21 2014

NOTE:  "FAIR" INDICATES FEW OR NO CLOUDS BELOW 12,000 FEET
WITH NO SIGNIFICANT WEATHER AND/OR OBSTRUCTIONS TO VISIBILITY.

WYZ001-211500-
YELLOWSTONE NATIONAL PARK

CITY           SKY/WX    TMP DP  RH WIND       PRES   REMARKS
LK YELLOWSTONE   N/A     32  31  96 W3        30.00F
W YELLOWSTONE  NOT AVBL

$$
WYZ002>013-054>058-071-098>099-211500-
NORTHERN WYOMING

CITY           SKY/WX    TMP DP  RH WIND       PRES   REMARKS
JACKSON        CLOUDY    36  36 100 CALM      29.95S
CODY           PTCLDY   N/A N/A N/A S8        29.82F
GREYBULL       CLEAR     37  28  70 SE5       29.81F WCI  33
WORLAND        CLEAR     41  30  65 CALM      29.81F
SHERIDAN       CLEAR     52  32  46 NW3       29.77S
BUFFALO        CLEAR     60  29  30 SW6       29.84S
GILLETTE       CLEAR     60  35  39 SW21      29.81S
HULETT         FAIR      63  34  34 S20G25    29.84
NEWCASTLE      FAIR      45  34  65 SE9       29.91

$$
WYZ014>020-022>026-101>103-211500-
CENTRAL WYOMING

CITY           SKY/WX    TMP DP  RH WIND       PRES   REMARKS
BIG PINEY      PTCLDY    32  27  81 E5        30.02F WCI  27
PINEDALE       CLOUDY    37  34  87 SE6       30.04F WCI  33
DUBOIS         FAIR      46  36  66 W14G29    29.97R
LANDER         PTCLDY    44  32  62 E5        29.91F
RIVERTON       PTCLDY    40  29  64 W6        29.92S
CASPER         CLEAR     51  35  54 SW16      29.94F
DOUGLAS        CLEAR     51  37  58 S12       29.96S

$$
WYZ021-027>030-104>119-211500-
SOUTHERN WYOMING

CITY           SKY/WX    TMP DP  RH WIND       PRES   REMARKS
EVANSTON       MOCLDY    46  38  73 SE9       30.01F
KEMMERER       DRIZZLE   45  37  76 W5G21     30.04R
FORT BRIDGER   FAIR      49  37  61 S8        30.06R
ROCK SPRINGS   PTCLDY    50  35  56 S7        30.03S
RAWLINS        PTCLDY    48  35  60 SW7       30.06S
SARATOGA       FAIR      46  34  61 S15       30.10R
LARAMIE        MOCLDY    39  32  76 SE7       30.11F WCI  34
CHEYENNE       CLOUDY    48  36  63 SW3       30.05S
TORRINGTON     PTCLDY    41  35  79 CALM      29.96S
PINE BLUFFS    FAIR      36  34  93 S3        30.02S

$$


USA.gov is the U.S. government's official web portal to all federal, state and local government web resources and services.